Powrót do katalogu

OPS 9327

IDSCS 14

LostMilitariaMEO
NORAD 2654·PAYLOAD·🇺🇸 United States

Wystrzelony Jan 18, 1967 z Cape Canaveral Space Force Station

Loading…

Następne Przeloty (najbliższe 24 godziny)

TLE

NieaktualneSource: Space-Track

Epoka: Jul 28, 2026, 03:58 UTC

1 02654U 67003G   26209.16552884 -.00000110  00000-0  00000-0 0  9994
2 02654   8.2357  46.6917 0057212  51.6861 137.5002  1.07511668139917

Śledź OPS 9327 w czasie rzeczywistym z AllMySat

Download on the App Store